Home > Weather > Albenga > Past weeks

Flag for Italy Past Weather in Albenga, Italy — Yesterday and Last 2 Weeks

Now
66 °F

Passing clouds.


Feels Like: 66 °F
Forecast: 61 / 81 °F
Wind: 26 mph from Northeast

Location: Capo Mele

Current Time: Jun 27, 2016 at 4:23:34 AM

Latest Report: Jun 27, 2016 at 3:00 AM


Visibility: 6 mi

Pressure: 29.88 "Hg

Humidity: 74%

Dew Point: 58 °F

Location of AlbengaLocation

Past Weather in Albenga — Graph

°F

Albenga Temperature Yesterday

Maximum temperature yesterday: 77 °F (at 12:00 PM)
Minimum temperature yesterday: 66 °F (at 1:00 AM)
Average temperature yesterday: 70 °F

High & Low Weather Summary for the Past Weeks

 TemperatureHumidityPressure
High82 °F (Jun 24, 4:00 PM)86% (Jun 15, 5:00 AM)30.22 "Hg (Jun 15, 5:00 AM)
Low59 °F (Jun 18, 5:00 AM)36% (Jun 22, 8:00 PM)29.47 "Hg (Jun 14, 9:00 PM)
Average69 °F68%29.88 "Hg
* Reported Jun 12 3:00 AM — Jun 27 3:00 AM, Albenga, Weather by CustomWeather, © 2016

Note: Actual official high and low records may vary slightly from our data, if they occured in-between our weather recording intervals... More about our weather records

Advertising

Albenga Weather History for the Previous 24 Hours

Scroll right to see more
 ConditionsComfort  
Time TempWeatherWind HumidityBarometerVisibility
3:00 AM
Mon, Jun 27
66 °FPassing clouds.26 mph74%29.88 "Hg6 mi
2:00 AM66 °FPassing clouds.21 mph74%29.90 "Hg6 mi
1:00 AM67 °FPassing clouds.17 mph74%29.89 "Hg6 mi
12:00 AM67 °FPassing clouds.14 mph74%29.88 "Hg6 mi
11:00 PM
Sun, Jun 26
67 °FPassing clouds.13 mph75%29.88 "Hg6 mi
10:00 PM68 °FClear.7 mph75%29.87 "Hg6 mi
9:00 PM68 °FOvercast.7 mph78%29.86 "Hg6 mi
8:00 PM70 °FScattered clouds.9 mph81%29.87 "Hg6 mi
7:00 PM72 °FScattered clouds.12 mph80%29.87 "Hg6 mi
6:00 PM72 °FPassing clouds.8 mph80%29.89 "Hg6 mi
5:00 PM72 °FPassing clouds.7 mph78%29.89 "Hg6 mi
4:00 PM73 °FPassing clouds.7 mph80%29.89 "Hg6 mi
3:00 PM74 °FPartly sunny.5 mph81%29.90 "Hg6 mi
2:00 PM75 °FScattered clouds.7 mph75%29.90 "Hg6 mi
12:00 PM77 °FScattered clouds.12 mph69%29.90 "Hg6 mi
11:00 AM75 °FScattered clouds.9 mph71%29.89 "Hg6 mi
10:00 AM73 °FScattered clouds.8 mph73%29.90 "Hg6 mi
9:00 AM71 °FScattered clouds.8 mph77%29.89 "Hg6 mi
8:00 AM68 °FPassing clouds.8 mph77%29.88 "Hg6 mi
7:00 AM66 °FScattered clouds.6 mph77%29.88 "Hg6 mi
6:00 AM66 °FPassing clouds.7 mph77%29.87 "Hg6 mi
5:00 AM66 °FPassing clouds.8 mph77%29.86 "Hg12 mi
4:00 AM66 °FClear.12 mph75%29.85 "Hg12 mi
Weather by CustomWeather, © 2016

See weather overviewHow to use our weather pages